Weather in Sary-Chumysh

Russia / Kemerovo Oblast     53°14′25″N   86°43′20″E
temp.,
°C
wind,
m/s
gust,
m/s
humid.,
%
clouds,
%
prec.,
mm/h
press.,
hPa
HPBL,
m
14 april, wed
wed1401:00−1wsw3694100 0.1 1035535
04:00−1wsw4889100 0.0 1034766
07:00−1sw3893100 0.1 1035446
10:000sw3893100 0.2 1035506
13:00+1sw4786100 0.3 1033762
16:00+1sw4991100 0.1 1031763
19:00+1sw41297100 1.6 1029657
22:00+1sw41294100 0.2 1029584
15 april, thu
thu1501:00+1sw4129188 0.2 1027562
04:00+2sw2794100 0.2 1027259
07:00+1s1397100 0.3 102884
10:00+1s1395100 0.0 1028179
13:00+2ssw2396100 0.1 1028263
16:00+3ssw1297100 0.0 1027264
19:00+2s11100100 0.0 102644
22:00+1s11100100 0.0 102641
16 april, fri
fri1601:00+1s13100100 0.0 102486
04:00+1s1299100 0.0 102353
07:00+1sse1398100 0.1 102288
10:00+4ssw159493 0.0 1021197
13:00+10sw35735 0.0 1019661
16:00+11sw35675 0.0 1017693
19:00+8sw25854 0.0 1016166
22:00+4ssw22850 0.0 101518
17 april, sat
sat1701:00+3s228953 0.0 101417
04:00+3s1190100 0.0 101210
07:00+3nne1189100 0.0 101211
10:00+4n4686100 0.0 1013463
13:00+3nne4688100 0.2 1014580
16:00+5nne3476100 0.6 1014767
19:00+4nne237743 0.7 1014604
22:00+2n118547 0.0 101431
18 april, sun
sun1801:00+1ssw1191100 0.0 101431
04:00+1s1197100 0.0 101117
07:00+2sse179886 0.3 1008250
10:00+2w3997100 1.6 1008524
13:00+2w41096100 5.1 1010582
16:00+4w4971100 0.3 10121501
19:00+2wsw4996100 0.9 1013605
22:000wnw2587100 0.8 1016192